Tracking 20232 objects as of 19-Jan-2020
HD Live streaming from Space Station
objects crossing your sky now

GRIFEX

Track GRIFEX now!
10-day predictions
GRIFEX is classified as:


NORAD ID: 40379
Int'l Code: 2015-003D
Perigee: 432.1 km
Apogee: 618.1 km
Inclination: 99.1 °
Period: 95.0 minutes
Semi major axis: 6896 km
RCS: Unknown
Launch date: January 31, 2015
Source: United States (US)
Launch site: AIR FORCE WESTERN TEST RANGE (AFWTR)

Uplink (MHz):
Downlink (MHz): 437.480
Beacon (MHz):
Mode: 9k6/19k2bps GMSK
Call sign: KD8SPS
Status: Active

aabbcc
Your satellite tracking list
Your tracking list is empty




NASA's NSSDC Master Catalog

Two Line Element Set (TLE):
1 40379U 15003D   20018.75105196  .00000818  00000-0  38514-4 0  9999
2 40379  99.1196  40.8847 0134878 118.9456 242.5374 15.16003772274019
Source of the keplerian elements: Caltech